Tracking 30743 objects as of 20-Jun-2025
HD Live streaming from Space Station
objects crossing your sky now

SLOSHSAT

Track SLOSHSAT now!
SLOSHSAT is classified as:


NORAD ID: 28544
Int'l Code: 2005-005C
Perigee: 229.1 km
Apogee: 30,857.8 km
Inclination: 6.8 °
Period: 538.1 minutes
Semi major axis: 21914 km
RCS: 0.5011 m2 (medium)
Launch date: February 12, 2005
Source: European Space Agency (ESA)
Launch site: FRENCH GUIANA (FRGUI)
Your satellite tracking list
Your tracking list is empty




NASA's NSSDC Master Catalog

Two Line Element Set (TLE):
1 28544U 05005C   25171.28678134  .00014695  00000-0  17358-2 0  9999
2 28544   6.7529 177.5680 6988237 279.7383  13.7821  2.67612522181410
Source of the keplerian elements: AFSPC